User: anonymous   Login
Location: Buckeye Ditch
(40.9104°N, 122.9517°W)
Time: 00:38:30
(UTC+00:00)
Language:

Cosmos 921 Rocket - Orbit

View from above orbital plane
View from above orbital plane
View from above satellite
View from above satellite

Ground track
Ground track

The orbit data is extracted from the following two-line orbital elements,

1 10096U 77055B   24168.95595313  .00000951  00000-0  98321-4 0  9993
2 10096  75.8326 135.6084 0041329 172.4110 187.7717 14.90356883542557
Epoch (UTC): 16 June 2024 22:56:34
Eccentricity: 0.0041329
inclination: 75.8326°
perigee height: 568 km
apogee height: 625 km
right ascension of ascending node: 135.6084°
argument of perigee: 172.4110°
revolutions per day: 14.90356883
mean anomaly at epoch: 187.7717°
orbit number at epoch: 54255

The dashed part of the orbit path shows where the satellite is in the earth's shadow,  

DLR